Time,TemperatureF,DewpointF,PressureIn,WindDirection,WindDirectionDegrees,WindSpeedMPH,WindSpeedGustMPH,Humidity,HourlyPrecipIn,Conditions,Clouds,dailyrainin,SoftwareType,DateUTC
2013-12-30 00:08:00,52.3,31.0,30.15,NW,307,0.0,4.0,45,0.00,,,0.00,weatherlink.com 1.10,2013-12-30 08:08:00,
2013-12-30 00:23:00,52.2,32.0,30.15,NE,49,4.0,6.0,46,0.00,,,0.00,weatherlink.com 1.10,2013-12-30 08:23:00,
2013-12-30 00:38:00,52.4,32.0,30.15,East,90,5.0,9.0,47,0.00,,,0.00,weatherlink.com 1.10,2013-12-30 08:38:00,
2013-12-30 00:53:00,52.9,33.0,30.15,ESE,105,4.0,9.0,47,0.00,,,0.00,weatherlink.com 1.10,2013-12-30 08:53:00,
2013-12-30 01:08:00,53.2,32.0,30.15,South,170,0.0,10.0,45,0.00,,,0.00,weatherlink.com 1.10,2013-12-30 09:08:00,
2013-12-30 01:38:00,52.2,32.0,30.14,SE,128,0.0,6.0,46,0.00,,,0.00,weatherlink.com 1.10,2013-12-30 09:38:00,
2013-12-30 01:53:00,51.3,32.0,30.15,SW,229,0.0,3.0,48,0.00,,,0.00,weatherlink.com 1.10,2013-12-30 09:53:00,
2013-12-30 02:23:00,52.1,33.0,30.15,ESE,115,5.0,12.0,48,0.00,,,0.00,weatherlink.com 1.10,2013-12-30 10:23:00,
2013-12-30 02:37:00,52.6,34.0,30.16,South,173,0.0,10.0,49,0.00,,,0.00,weatherlink.com 1.10,2013-12-30 10:37:00,
2013-12-30 03:08:00,52.3,34.0,30.16,East,79,4.0,11.0,51,0.00,,,0.00,weatherlink.com 1.10,2013-12-30 11:08:00,
2013-12-30 03:23:00,52.2,35.0,30.17,SW,232,3.0,10.0,53,0.00,,,0.00,weatherlink.com 1.10,2013-12-30 11:23:00,
2013-12-30 03:52:00,52.4,35.0,30.16,ESE,111,11.0,11.0,52,0.00,,,0.00,weatherlink.com 1.10,2013-12-30 11:52:00,
2013-12-30 04:23:00,52.3,35.0,30.16,East,101,5.0,12.0,52,0.00,,,0.00,weatherlink.com 1.10,2013-12-30 12:23:00,
2013-12-30 04:38:00,52.6,35.0,30.16,SSE,162,1.0,7.0,52,0.00,,,0.00,weatherlink.com 1.10,2013-12-30 12:38:00,
2013-12-30 04:54:00,51.1,34.0,30.16,WSW,250,0.0,3.0,52,0.00,,,0.00,weatherlink.com 1.10,2013-12-30 12:54:00,
2013-12-30 05:08:00,49.4,34.0,30.16,North,6,0.0,1.0,56,0.00,,,0.00,weatherlink.com 1.10,2013-12-30 13:08:00,
2013-12-30 05:23:00,48.3,34.0,30.17,NNE,26,0.0,0.0,59,0.00,,,0.00,weatherlink.com 1.10,2013-12-30 13:23:00,
2013-12-30 05:39:00,47.8,34.0,30.17,ESE,102,0.0,0.0,59,0.00,,,0.00,weatherlink.com 1.10,2013-12-30 13:39:00,
2013-12-30 05:54:00,48.7,34.0,30.17,East,95,0.0,0.0,58,0.00,,,0.00,weatherlink.com 1.10,2013-12-30 13:54:00,
2013-12-30 06:09:00,48.7,34.0,30.17,SSW,197,0.0,0.0,57,0.00,,,0.00,weatherlink.com 1.10,2013-12-30 14:09:00,
2013-12-30 06:24:00,48.0,34.0,30.18,ESE,108,0.0,0.0,58,0.00,,,0.00,weatherlink.com 1.10,2013-12-30 14:24:00,
2013-12-30 06:39:00,48.3,33.0,30.18,East,90,0.0,2.0,57,0.00,,,0.00,weatherlink.com 1.10,2013-12-30 14:39:00,
2013-12-30 07:09:00,46.8,33.0,30.18,ESE,112,0.0,0.0,60,0.00,,,0.00,weatherlink.com 1.10,2013-12-30 15:09:00,
2013-12-30 07:24:00,46.4,33.0,30.20,SSW,198,0.0,1.0,61,0.00,,,0.00,weatherlink.com 1.10,2013-12-30 15:24:00,
2013-12-30 07:39:00,46.0,34.0,30.20,ESE,103,0.0,0.0,63,0.00,,,0.00,weatherlink.com 1.10,2013-12-30 15:39:00,
2013-12-30 07:54:00,47.0,34.0,30.20,ENE,70,0.0,0.0,61,0.00,,,0.00,weatherlink.com 1.10,2013-12-30 15:54:00,
2013-12-30 08:09:00,49.5,36.0,30.20,SE,142,0.0,7.0,61,0.00,,,0.00,weatherlink.com 1.10,2013-12-30 16:09:00,
2013-12-30 08:24:00,50.9,36.0,30.20,SW,224,7.0,8.0,58,0.00,,,0.00,weatherlink.com 1.10,2013-12-30 16:24:00,
2013-12-30 08:39:00,49.6,36.0,30.21,SSE,155,0.0,3.0,60,0.00,,,0.00,weatherlink.com 1.10,2013-12-30 16:39:00,
2013-12-30 08:54:00,49.0,38.0,30.21,SSW,209,2.0,4.0,65,0.00,,,0.00,weatherlink.com 1.10,2013-12-30 16:54:00,
2013-12-30 09:09:00,49.1,38.0,30.21,SW,222,1.0,3.0,65,0.00,,,0.00,weatherlink.com 1.10,2013-12-30 17:09:00,
2013-12-30 09:24:00,49.5,39.0,30.21,West,260,0.0,3.0,68,0.00,,,0.00,weatherlink.com 1.10,2013-12-30 17:24:00,
2013-12-30 09:39:00,50.9,39.0,30.23,West,266,0.0,2.0,65,0.00,,,0.00,weatherlink.com 1.10,2013-12-30 17:39:00,
2013-12-30 09:54:00,52.4,40.0,30.23,SW,233,0.0,1.0,62,0.00,,,0.00,weatherlink.com 1.10,2013-12-30 17:54:00,
2013-12-30 10:09:00,52.9,40.0,30.23,SW,219,4.0,4.0,61,0.00,,,0.00,weatherlink.com 1.10,2013-12-30 18:09:00,
2013-12-30 10:24:00,53.6,40.0,30.23,SSE,158,3.0,4.0,60,0.00,,,0.00,weatherlink.com 1.10,2013-12-30 18:24:00,
2013-12-30 10:39:00,54.5,40.0,30.23,South,189,1.0,6.0,58,0.00,,,0.00,weatherlink.com 1.10,2013-12-30 18:39:00,
2013-12-30 10:54:00,54.8,40.0,30.23,SSW,203,1.0,5.0,57,0.00,,,0.00,weatherlink.com 1.10,2013-12-30 18:54:00,
2013-12-30 11:09:00,55.4,40.0,30.22,WSW,241,3.0,4.0,56,0.00,,,0.00,weatherlink.com 1.10,2013-12-30 19:09:00,
2013-12-30 11:39:00,55.1,41.0,30.22,SW,235,3.0,6.0,60,0.00,,,0.00,weatherlink.com 1.10,2013-12-30 19:39:00,
2013-12-30 11:54:00,55.5,42.0,30.21,SW,215,0.0,5.0,61,0.00,,,0.00,weatherlink.com 1.10,2013-12-30 19:54:00,
2013-12-30 12:09:00,56.3,42.0,30.20,SSE,155,0.0,3.0,59,0.00,,,0.00,weatherlink.com 1.10,2013-12-30 20:09:00,
2013-12-30 12:24:00,57.3,42.0,30.20,WNW,302,0.0,3.0,57,0.00,,,0.00,weatherlink.com 1.10,2013-12-30 20:24:00,
2013-12-30 12:39:00,58.1,41.0,30.19,WNW,302,2.0,4.0,54,0.00,,,0.00,weatherlink.com 1.10,2013-12-30 20:39:00,
2013-12-30 12:54:00,59.3,41.0,30.18,NW,314,1.0,4.0,51,0.00,,,0.00,weatherlink.com 1.10,2013-12-30 20:54:00,
2013-12-30 13:09:00,60.3,41.0,30.18,SW,232,0.0,4.0,49,0.00,,,0.00,weatherlink.com 1.10,2013-12-30 21:09:00,
2013-12-30 13:25:00,61.3,43.0,30.18,NW,319,3.0,5.0,51,0.00,,,0.00,weatherlink.com 1.10,2013-12-30 21:25:00,
2013-12-30 13:40:00,60.3,42.0,30.18,SW,219,1.0,4.0,51,0.00,,,0.00,weatherlink.com 1.10,2013-12-30 21:40:00,
2013-12-30 13:54:00,60.4,42.0,30.18,North,354,1.0,3.0,52,0.00,,,0.00,weatherlink.com 1.10,2013-12-30 21:54:00,
2013-12-30 14:09:00,61.1,42.0,30.17,NE,49,2.0,2.0,50,0.00,,,0.00,weatherlink.com 1.10,2013-12-30 22:09:00,
2013-12-30 14:25:00,62.4,42.0,30.18,WSW,243,3.0,4.0,48,0.00,,,0.00,weatherlink.com 1.10,2013-12-30 22:25:00,
2013-12-30 14:40:00,63.0,42.0,30.18,WNW,294,1.0,4.0,46,0.00,,,0.00,weatherlink.com 1.10,2013-12-30 22:40:00,
2013-12-30 14:55:00,63.2,41.0,30.17,SW,232,3.0,4.0,44,0.00,,,0.00,weatherlink.com 1.10,2013-12-30 22:55:00,
2013-12-30 15:10:00,63.9,41.0,30.17,SW,225,0.0,3.0,43,0.00,,,0.00,weatherlink.com 1.10,2013-12-30 23:10:00,
2013-12-30 15:25:00,64.7,42.0,30.17,WSW,238,2.0,4.0,43,0.00,,,0.00,weatherlink.com 1.10,2013-12-30 23:25:00,
2013-12-30 15:39:00,63.8,42.0,30.18,South,186,1.0,4.0,46,0.00,,,0.00,weatherlink.com 1.10,2013-12-30 23:39:00,
2013-12-30 15:54:00,62.9,42.0,30.17,SW,215,0.0,2.0,47,0.00,,,0.00,weatherlink.com 1.10,2013-12-30 23:54:00,
2013-12-30 16:09:00,61.5,42.0,30.18,NE,43,1.0,3.0,49,0.00,,,0.00,weatherlink.com 1.10,2013-12-31 00:09:00,
2013-12-30 16:24:00,60.6,42.0,30.18,ENE,60,0.0,2.0,51,0.00,,,0.00,weatherlink.com 1.10,2013-12-31 00:24:00,
2013-12-30 16:39:00,59.5,42.0,30.19,ENE,69,2.0,2.0,52,0.00,,,0.00,weatherlink.com 1.10,2013-12-31 00:39:00,
2013-12-30 16:54:00,58.8,41.0,30.18,SE,131,3.0,5.0,52,0.00,,,0.00,weatherlink.com 1.10,2013-12-31 00:54:00,
2013-12-30 17:09:00,57.9,41.0,30.18,ESE,108,3.0,5.0,53,0.00,,,0.00,weatherlink.com 1.10,2013-12-31 01:09:00,
2013-12-30 17:24:00,57.1,40.0,30.18,East,100,3.0,4.0,54,0.00,,,0.00,weatherlink.com 1.10,2013-12-31 01:24:00,
2013-12-30 17:39:00,55.4,41.0,30.19,SE,139,3.0,5.0,59,0.00,,,0.00,weatherlink.com 1.10,2013-12-31 01:39:00,
2013-12-30 17:54:00,54.5,41.0,30.19,SE,132,2.0,5.0,60,0.00,,,0.00,weatherlink.com 1.10,2013-12-31 01:54:00,
2013-12-30 18:09:00,54.1,40.0,30.19,ESE,108,4.0,5.0,60,0.00,,,0.00,weatherlink.com 1.10,2013-12-31 02:09:00,
2013-12-30 18:24:00,54.3,40.0,30.20,SE,129,0.0,4.0,59,0.00,,,0.00,weatherlink.com 1.10,2013-12-31 02:24:00,
2013-12-30 18:40:00,53.7,41.0,30.20,ESE,121,2.0,4.0,62,0.00,,,0.00,weatherlink.com 1.10,2013-12-31 02:40:00,
2013-12-30 18:55:00,53.1,42.0,30.20,SE,143,1.0,5.0,67,0.00,,,0.00,weatherlink.com 1.10,2013-12-31 02:55:00,
2013-12-30 19:09:00,52.2,43.0,30.21,SW,225,1.0,4.0,72,0.00,,,0.00,weatherlink.com 1.10,2013-12-31 03:09:00,
2013-12-30 19:24:00,51.3,44.0,30.21,SSE,150,0.0,5.0,76,0.00,,,0.00,weatherlink.com 1.10,2013-12-31 03:24:00,
2013-12-30 19:55:00,50.3,45.0,30.21,SSE,155,0.0,1.0,82,0.00,,,0.00,weatherlink.com 1.10,2013-12-31 03:55:00,
2013-12-30 20:10:00,49.3,44.0,30.22,NE,39,0.0,0.0,82,0.00,,,0.00,weatherlink.com 1.10,2013-12-31 04:10:00,
2013-12-30 20:25:00,49.3,45.0,30.22,SSE,149,1.0,5.0,86,0.00,,,0.00,weatherlink.com 1.10,2013-12-31 04:25:00,
2013-12-30 20:40:00,49.4,46.0,30.22,SSE,153,2.0,3.0,87,0.00,,,0.00,weatherlink.com 1.10,2013-12-31 04:40:00,
2013-12-30 20:55:00,49.5,46.0,30.22,ESE,113,2.0,5.0,88,0.00,,,0.00,weatherlink.com 1.10,2013-12-31 04:55:00,
2013-12-30 21:10:00,49.5,46.0,30.23,ESE,123,1.0,4.0,88,0.00,,,0.00,weatherlink.com 1.10,2013-12-31 05:10:00,
2013-12-30 21:25:00,49.2,46.0,30.23,ESE,103,2.0,4.0,89,0.00,,,0.00,weatherlink.com 1.10,2013-12-31 05:25:00,
2013-12-30 21:40:00,49.0,46.0,30.22,SE,135,2.0,4.0,89,0.00,,,0.00,weatherlink.com 1.10,2013-12-31 05:40:00,
2013-12-30 21:55:00,48.8,45.0,30.22,East,91,0.0,3.0,88,0.00,,,0.00,weatherlink.com 1.10,2013-12-31 05:55:00,
2013-12-30 22:10:00,47.8,44.0,30.23,East,89,0.0,2.0,86,0.00,,,0.00,weatherlink.com 1.10,2013-12-31 06:10:00,
2013-12-30 22:25:00,47.6,44.0,30.23,East,89,1.0,2.0,86,0.00,,,0.00,weatherlink.com 1.10,2013-12-31 06:25:00,
2013-12-30 22:40:00,47.7,43.0,30.22,East,94,0.0,2.0,83,0.00,,,0.00,weatherlink.com 1.10,2013-12-31 06:40:00,
2013-12-30 22:55:00,47.1,41.0,30.22,East,94,0.0,1.0,80,0.00,,,0.00,weatherlink.com 1.10,2013-12-31 06:55:00,
2013-12-30 23:10:00,46.7,41.0,30.22,ESE,102,1.0,2.0,79,0.00,,,0.00,weatherlink.com 1.10,2013-12-31 07:10:00,
2013-12-30 23:25:00,46.9,42.0,30.22,ESE,121,1.0,3.0,82,0.00,,,0.00,weatherlink.com 1.10,2013-12-31 07:25:00,
2013-12-30 23:40:00,47.6,44.0,30.22,East,80,0.0,5.0,86,0.00,,,0.00,weatherlink.com 1.10,2013-12-31 07:40:00,
2013-12-30 23:55:00,46.8,43.0,30.21,East,96,1.0,2.0,86,0.00,,,0.00,weatherlink.com 1.10,2013-12-31 07:55:00,